User: anonymous   Login
Location: Proctor
(47.8934°N, 114.3048°W)
Time: 00:33:41
(UTC+00:00)
Language:

Vanguard 3 - Orbit

View from above orbital plane
View from above orbital plane
View from above satellite
View from above satellite

Ground track
Ground track

The orbit data is extracted from the following two-line orbital elements,

1 00020U 59007A   24167.58679296  .00003819  00000-0  15693-2 0  9992
2 00020  33.3446  15.8011 1649818  99.0787 279.9361 11.58900981399583
Epoch (UTC): 15 June 2024 14:04:58
Eccentricity: 0.1649818
inclination: 33.3446°
perigee height: 509 km
apogee height: 3231 km
right ascension of ascending node: 15.8011°
argument of perigee: 99.0787°
revolutions per day: 11.58900981
mean anomaly at epoch: 279.9361°
orbit number at epoch: 39958

The dashed part of the orbit path shows where the satellite is in the earth's shadow,  

DLR